THA24 EDDF-LDSP

Flight info

Callsign THA24
Flight time N/A
Altitude 37000
Route CINDY8S CINDY Z74 LAMPU DCT NOMBO Y161 MAH DCT BERAS DCT LIKDA DCT BAKOR DCT MOBDO DCT RASUG DCT LOS DCT MINTU DCT SAL
Aircraft A320/M-SDE3FGHIRWY/LB1

Departure

Time 2026-04-17 06:54
Airport Frankfurt Main Airport (EDDF)

Arrival

Time N/A
Airport Split Saint Jerome Airport (LDSP)
Time Latitude Longitude Altitude Speed Heading
2026-04-17 06:39 50.03577 8.53664 336 ft 0 kts 159°
2026-04-17 06:51 50.03564 8.53671 337 ft 4 kts 160°
2026-04-17 06:51 50.03528 8.53689 340 ft 6 kts 175°
2026-04-17 06:52 50.03494 8.53632 336 ft 9 kts 250°
2026-04-17 06:52 50.03470 8.53529 336 ft 12 kts 250°
2026-04-17 06:52 50.03437 8.53394 338 ft 15 kts 249°
2026-04-17 06:52 50.03404 8.53261 333 ft 18 kts 249°
2026-04-17 06:53 50.03362 8.53083 332 ft 16 kts 250°
2026-04-17 06:53 50.03322 8.52907 334 ft 19 kts 250°
2026-04-17 06:53 50.03274 8.52709 331 ft 17 kts 249°
2026-04-17 06:53 50.03187 8.52597 335 ft 18 kts 187°
2026-04-17 06:54 50.02923 8.52600 332 ft 78 kts 180°
2026-04-17 06:54 50.02132 8.52602 335 ft 152 kts 179°
2026-04-17 06:54 50.00923 8.52611 618 ft 191 kts 180°
2026-04-17 06:54 49.99694 8.52641 1287 ft 205 kts 180°
2026-04-17 06:55 49.98346 8.52674 2168 ft 199 kts 180°
2026-04-17 06:55 49.97185 8.52960 2530 ft 214 kts 160°
2026-04-17 06:55 49.95986 8.54467 2891 ft 236 kts 126°
2026-04-17 06:55 49.95144 8.56720 3609 ft 242 kts 123°
2026-04-17 06:56 49.94349 8.59040 4449 ft 248 kts 114°
2026-04-17 06:56 49.93997 8.61044 4960 ft 261 kts 97°
2026-04-17 06:56 49.93865 8.63989 5402 ft 283 kts 92°
2026-04-17 06:56 49.93587 8.67059 6157 ft 293 kts 107°
2026-04-17 06:57 49.92752 8.69882 6950 ft 297 kts 126°
2026-04-17 06:57 49.91415 8.72141 7749 ft 297 kts 145°
2026-04-17 06:57 49.90106 8.73630 8427 ft 299 kts 146°
2026-04-17 06:57 49.88755 8.75499 9138 ft 305 kts 135°
2026-04-17 06:58 49.87546 8.77972 9857 ft 311 kts 122°
2026-04-17 06:58 49.86508 8.80790 10492 ft 322 kts 120°
2026-04-17 06:58 49.85369 8.83932 10758 ft 345 kts 119°
2026-04-17 06:58 49.84163 8.87279 11073 ft 364 kts 119°
2026-04-17 06:59 49.83191 8.89982 11539 ft 370 kts 119°
2026-04-17 06:59 49.82159 8.92916 12040 ft 375 kts 118°
2026-04-17 06:59 49.80953 8.96308 12648 ft 381 kts 118°
2026-04-17 06:59 49.79970 8.99006 13171 ft 384 kts 119°
2026-04-17 07:00 49.78622 9.02662 13899 ft 386 kts 120°
2026-04-17 07:00 49.77282 9.06279 14577 ft 389 kts 119°
2026-04-17 07:00 49.76402 9.09059 15057 ft 391 kts 109°
2026-04-17 07:00 49.75665 9.13019 15653 ft 393 kts 102°
2026-04-17 07:01 49.74802 9.17098 16269 ft 397 kts 114°
2026-04-17 07:01 49.73665 9.20260 16779 ft 399 kts 124°
2026-04-17 07:01 49.72182 9.23197 17278 ft 401 kts 133°
2026-04-17 07:01 49.70517 9.26063 17817 ft 403 kts 133°
2026-04-17 07:02 49.68653 9.29327 18407 ft 406 kts 132°
2026-04-17 07:02 49.67031 9.32204 18917 ft 409 kts 131°
2026-04-17 07:02 49.65455 9.35012 19390 ft 412 kts 131°
2026-04-17 07:02 49.63965 9.37655 19834 ft 414 kts 131°
2026-04-17 07:03 49.62150 9.40576 20307 ft 417 kts 140°
2026-04-17 07:03 49.60016 9.43112 20776 ft 418 kts 149°
2026-04-17 07:03 49.58782 9.44269 21017 ft 419 kts 152°
2026-04-17 07:03 49.56322 9.45863 21408 ft 419 kts 163°
2026-04-17 07:04 49.54001 9.47410 21811 ft 424 kts 155°
2026-04-17 07:04 49.51780 9.49405 22212 ft 428 kts 149°
2026-04-17 07:04 49.49304 9.52003 22684 ft 432 kts 146°
2026-04-17 07:04 49.47678 9.53788 22965 ft 434 kts 146°
2026-04-17 07:05 49.45389 9.56263 23383 ft 437 kts 147°
2026-04-17 07:05 49.42881 9.58829 23820 ft 439 kts 149°
2026-04-17 07:05 49.40674 9.60952 24188 ft 441 kts 151°
2026-04-17 07:05 49.38671 9.62788 24524 ft 443 kts 152°
2026-04-17 07:06 49.36060 9.65105 24932 ft 446 kts 151°
2026-04-17 07:06 49.33568 9.67711 25326 ft 450 kts 142°
2026-04-17 07:06 49.32125 9.69636 25583 ft 451 kts 138°
2026-04-17 07:06 49.30363 9.72051 25853 ft 454 kts 138°
2026-04-17 07:07 49.28715 9.74580 26125 ft 456 kts 134°
2026-04-17 07:07 49.26526 9.78118 26512 ft 458 kts 134°
2026-04-17 07:07 49.24568 9.81233 26869 ft 460 kts 135°
2026-04-17 07:07 49.22487 9.84475 27226 ft 462 kts 135°
2026-04-17 07:08 49.20250 9.87897 27601 ft 464 kts 136°
2026-04-17 07:08 49.18020 9.91267 27947 ft 467 kts 136°
2026-04-17 07:08 49.16385 9.93724 28195 ft 468 kts 136°
2026-04-17 07:08 49.14297 9.96848 28539 ft 470 kts 136°
2026-04-17 07:09 49.12785 9.99112 28771 ft 471 kts 136°
2026-04-17 07:09 49.10605 10.02380 29107 ft 473 kts 135°
2026-04-17 07:09 49.08294 10.05860 29430 ft 475 kts 135°
2026-04-17 07:09 49.06394 10.08720 29681 ft 478 kts 135°
2026-04-17 07:10 49.04080 10.12155 29986 ft 480 kts 136°
2026-04-17 07:10 49.02137 10.14958 30235 ft 482 kts 136°
2026-04-17 07:10 48.99847 10.18202 30534 ft 484 kts 137°
2026-04-17 07:10 48.97669 10.21228 30820 ft 486 kts 137°
2026-04-17 07:11 48.95247 10.24573 31223 ft 485 kts 137°
2026-04-17 07:11 48.93256 10.27330 31543 ft 486 kts 137°
2026-04-17 07:11 48.91083 10.30360 31877 ft 486 kts 136°
2026-04-17 07:11 48.88920 10.33405 32196 ft 487 kts 136°
2026-04-17 07:12 48.86803 10.36399 32522 ft 487 kts 136°
2026-04-17 07:12 48.85206 10.38655 32762 ft 487 kts 136°
2026-04-17 07:12 48.82821 10.42026 33110 ft 488 kts 135°
2026-04-17 07:12 48.81017 10.44680 33385 ft 488 kts 134°
2026-04-17 07:13 48.78637 10.48382 33756 ft 488 kts 131°
2026-04-17 07:13 48.77115 10.50850 34012 ft 488 kts 131°
2026-04-17 07:13 48.74821 10.54641 34387 ft 488 kts 130°
2026-04-17 07:13 48.72840 10.57932 34699 ft 488 kts 130°
2026-04-17 07:14 48.70547 10.61710 35097 ft 487 kts 131°
2026-04-17 07:14 48.68780 10.64496 35409 ft 486 kts 132°
2026-04-17 07:14 48.66588 10.67915 35751 ft 485 kts 132°
2026-04-17 07:14 48.64497 10.71211 36070 ft 484 kts 131°
2026-04-17 07:15 48.62173 10.74907 36400 ft 484 kts 131°
2026-04-17 07:15 48.60065 10.78279 36702 ft 483 kts 131°
2026-04-17 07:15 48.57990 10.81605 37043 ft 481 kts 131°
2026-04-17 07:15 48.55844 10.85049 37217 ft 478 kts 131°
2026-04-17 07:16 48.54010 10.87992 37264 ft 478 kts 131°
2026-04-17 07:16 48.50499 10.93619 37266 ft 477 kts 131°
2026-04-17 07:17 48.45548 11.01483 37275 ft 477 kts 132°
2026-04-17 07:17 48.39382 11.11050 37274 ft 475 kts 132°
2026-04-17 07:18 48.35657 11.16807 37276 ft 475 kts 132°
2026-04-17 07:18 48.30927 11.24120 37280 ft 475 kts 132°
2026-04-17 07:19 48.25867 11.30508 37284 ft 478 kts 148°
2026-04-17 07:19 48.21305 11.33804 37285 ft 477 kts 161°
2026-04-17 07:20 48.15010 11.37012 37283 ft 477 kts 161°
2026-04-17 07:20 48.09079 11.40050 37285 ft 477 kts 161°
2026-04-17 07:21 48.03491 11.42915 37286 ft 477 kts 161°
2026-04-17 07:21 47.97352 11.46053 37284 ft 477 kts 161°
2026-04-17 07:22 47.91068 11.49253 37286 ft 476 kts 161°
2026-04-17 07:22 47.84823 11.52422 37286 ft 476 kts 161°
2026-04-17 07:23 47.78614 11.55570 37283 ft 476 kts 161°
2026-04-17 07:23 47.73006 11.58408 37286 ft 476 kts 161°
2026-04-17 07:24 47.66991 11.61441 37288 ft 476 kts 161°
2026-04-17 07:24 47.60730 11.64578 37288 ft 476 kts 161°
2026-04-17 07:25 47.55517 11.67191 37289 ft 476 kts 161°
2026-04-17 07:25 47.48638 11.70634 37292 ft 476 kts 161°
2026-04-17 07:26 47.42365 11.73761 37300 ft 476 kts 161°
2026-04-17 07:26 47.35989 11.76374 37302 ft 476 kts 172°
2026-04-17 07:27 47.30500 11.76659 37301 ft 474 kts 184°
2026-04-17 07:27 47.23905 11.76270 37299 ft 474 kts 183°
2026-04-17 07:28 47.17442 11.76059 37291 ft 475 kts 175°
2026-04-17 07:28 47.14250 11.77013 37294 ft 474 kts 159°
2026-04-17 07:28 47.11236 11.79075 37287 ft 471 kts 150°
2026-04-17 07:29 47.05556 11.83657 37281 ft 472 kts 149°
2026-04-17 07:29 46.99942 11.88247 37281 ft 473 kts 149°
2026-04-17 07:30 46.94207 11.92924 37289 ft 473 kts 149°
2026-04-17 07:30 46.88451 11.97581 37291 ft 473 kts 149°
2026-04-17 07:31 46.82679 12.02228 37286 ft 473 kts 149°
2026-04-17 07:31 46.77067 12.06728 37292 ft 473 kts 149°
2026-04-17 07:32 46.71312 12.11339 37284 ft 472 kts 149°
2026-04-17 07:32 46.65739 12.15805 37290 ft 471 kts 149°
2026-04-17 07:33 46.60302 12.20141 37289 ft 471 kts 149°
2026-04-17 07:33 46.54513 12.24755 37286 ft 471 kts 149°
2026-04-17 07:34 46.49735 12.28560 37288 ft 472 kts 149°
2026-04-17 07:34 46.44605 12.32638 37284 ft 471 kts 149°
2026-04-17 07:35 46.40009 12.36282 37281 ft 471 kts 149°
2026-04-17 07:35 46.34849 12.40379 37278 ft 472 kts 149°
2026-04-17 07:36 46.30207 12.44007 37281 ft 471 kts 149°
2026-04-17 07:36 46.25600 12.47593 37274 ft 471 kts 149°
2026-04-17 07:37 46.20966 12.51240 37264 ft 471 kts 149°
2026-04-17 07:37 46.17071 12.54319 37260 ft 471 kts 149°
2026-04-17 07:38 46.12240 12.58108 37244 ft 471 kts 149°
2026-04-17 07:38 46.06631 12.62473 37236 ft 472 kts 149°
2026-04-17 07:39 46.01378 12.66523 37232 ft 472 kts 149°
2026-04-17 07:39 45.96277 12.70494 37233 ft 472 kts 148°
2026-04-17 07:40 45.91637 12.74136 37233 ft 472 kts 148°
2026-04-17 07:40 45.87770 12.77102 37249 ft 473 kts 149°
2026-04-17 07:41 45.81948 12.81572 37239 ft 474 kts 148°
2026-04-17 07:41 45.76202 12.86015 37244 ft 474 kts 148°
2026-04-17 07:42 45.70439 12.90486 37245 ft 473 kts 146°
2026-04-17 07:42 45.65322 12.96229 37246 ft 465 kts 131°
2026-04-17 07:43 45.61901 13.00978 37248 ft 465 kts 131°
2026-04-17 07:43 45.57253 13.07365 37245 ft 465 kts 131°
2026-04-17 07:44 45.52578 13.13754 37247 ft 466 kts 131°
2026-04-17 07:44 45.47902 13.20157 37250 ft 466 kts 131°
2026-04-17 07:45 45.43325 13.26420 37250 ft 466 kts 131°
2026-04-17 07:45 45.38640 13.32811 37248 ft 467 kts 131°
2026-04-17 07:46 45.34030 13.39078 37252 ft 468 kts 131°
2026-04-17 07:46 45.29327 13.45448 37254 ft 467 kts 132°
2026-04-17 07:47 45.24624 13.51810 37254 ft 467 kts 131°
2026-04-17 07:47 45.19924 13.58173 37255 ft 467 kts 132°
2026-04-17 07:48 45.15218 13.64512 37252 ft 467 kts 131°
2026-04-17 07:48 45.10591 13.70728 37252 ft 468 kts 132°
2026-04-17 07:49 45.05862 13.77069 37251 ft 467 kts 132°
2026-04-17 07:49 45.01174 13.83321 37244 ft 465 kts 132°
2026-04-17 07:50 44.96468 13.89597 37232 ft 465 kts 132°
2026-04-17 07:50 44.91778 13.95860 37237 ft 463 kts 132°
2026-04-17 07:51 44.87088 14.02090 37236 ft 463 kts 132°
2026-04-17 07:51 44.82389 14.08311 37226 ft 463 kts 133°
2026-04-17 07:52 44.77689 14.14528 37222 ft 463 kts 132°
2026-04-17 07:52 44.72986 14.20717 37222 ft 462 kts 132°
2026-04-17 07:53 44.68285 14.26889 37214 ft 461 kts 133°
2026-04-17 07:53 44.63585 14.33051 37213 ft 463 kts 133°
2026-04-17 07:54 44.58912 14.39172 37177 ft 462 kts 132°
2026-04-17 07:54 44.56563 14.42247 36840 ft 460 kts 132°
2026-04-17 07:54 44.54212 14.45323 36103 ft 465 kts 132°
2026-04-17 07:55 44.51826 14.48417 35342 ft 470 kts 131°
2026-04-17 07:55 44.49366 14.51471 34535 ft 475 kts 132°
2026-04-17 07:55 44.46836 14.54499 33634 ft 481 kts 131°
2026-04-17 07:55 44.44250 14.57526 32867 ft 484 kts 132°
2026-04-17 07:56 44.41674 14.60512 32347 ft 479 kts 132°
2026-04-17 07:56 44.39116 14.63483 31758 ft 476 kts 132°
2026-04-17 07:56 44.36589 14.66440 31177 ft 472 kts 132°
2026-04-17 07:56 44.34079 14.69404 30589 ft 469 kts 132°
2026-04-17 07:57 44.31639 14.72301 30019 ft 464 kts 131°
2026-04-17 07:57 44.29193 14.75211 29427 ft 461 kts 132°
2026-04-17 07:57 44.26761 14.78098 28849 ft 456 kts 132°
2026-04-17 07:57 44.24345 14.80953 28291 ft 452 kts 132°
2026-04-17 07:58 44.21956 14.83770 27710 ft 448 kts 133°
2026-04-17 07:58 44.19588 14.86562 27168 ft 444 kts 133°
2026-04-17 07:58 44.17242 14.89327 26617 ft 440 kts 133°
2026-04-17 07:58 44.14915 14.92067 26085 ft 435 kts 133°
2026-04-17 07:59 44.12616 14.94769 25568 ft 430 kts 133°
2026-04-17 07:59 44.10335 14.97448 25066 ft 426 kts 134°
2026-04-17 07:59 44.08083 15.00091 24559 ft 422 kts 134°
2026-04-17 07:59 44.05849 15.02712 24087 ft 418 kts 134°
2026-04-17 08:00 44.03636 15.05306 23600 ft 415 kts 134°
2026-04-17 08:00 44.01428 15.07890 23117 ft 412 kts 134°
2026-04-17 08:00 43.99243 15.10442 22640 ft 409 kts 134°
2026-04-17 08:00 43.97097 15.12945 22152 ft 407 kts 135°
2026-04-17 08:01 43.94938 15.15459 21660 ft 404 kts 135°
2026-04-17 08:01 43.92787 15.17962 21147 ft 401 kts 135°
2026-04-17 08:01 43.90675 15.20463 20642 ft 398 kts 134°
2026-04-17 08:01 43.88592 15.22966 20110 ft 396 kts 134°
2026-04-17 08:02 43.86526 15.25465 19595 ft 393 kts 134°
2026-04-17 08:02 43.84473 15.27947 19058 ft 390 kts 135°
2026-04-17 08:02 43.82431 15.30411 18536 ft 388 kts 135°
2026-04-17 08:02 43.80399 15.32849 17994 ft 385 kts 135°
2026-04-17 08:03 43.78377 15.35268 17475 ft 382 kts 136°
2026-04-17 08:03 43.76371 15.37659 16935 ft 379 kts 136°
2026-04-17 08:03 43.74378 15.40028 16412 ft 377 kts 136°
2026-04-17 08:03 43.72398 15.42380 15885 ft 374 kts 135°
2026-04-17 08:04 43.70437 15.44709 15364 ft 370 kts 135°
2026-04-17 08:04 43.68495 15.47018 14835 ft 367 kts 135°
2026-04-17 08:04 43.66592 15.49283 14329 ft 364 kts 135°
2026-04-17 08:04 43.64679 15.51552 13805 ft 361 kts 135°
2026-04-17 08:05 43.62810 15.53764 13296 ft 358 kts 135°
2026-04-17 08:05 43.60897 15.56024 12769 ft 354 kts 135°